Tracking 19854 objects as of 22-Sep-2019
HD Live streaming from Space Station
objects crossing your sky now

FALCON 9 R/B

Track FALCON 9 R/B now!


NORAD ID: 42433
Int'l Code: 2017-017B
Perigee: 261.9 km
Apogee: 32,477.7 km
Inclination: 26.2 °
Period: 568.8 minutes
Semi major axis: 22740 km
RCS: Unknown
Launch date: March 30, 2017
Source: United States (US)
Launch site: AIR FORCE EASTERN TEST RANGE (AFETR)

Note: This is a ROCKET BODY
aabbcc
Your satellite tracking list
Your tracking list is empty




NASA's NSSDC Master Catalog

Two Line Element Set (TLE):
1 42433U 17017B   19263.42054154 +.00000304 +00000-0 +11749-3 0  9990
2 42433 026.1838 336.8126 7083267 097.0394 340.9696 02.53159333022533
Source of the keplerian elements: AFSPC